Location: London
(51.5170°N, 0.1050°W)
Time: 07:38:12
(UTC+00:00)

ISS - Visible Passes

Search period start: 11 December 2017 00:00
Search period end: 21 December 2017 00:00
Orbit: 402 x 407 km, 51.6° (Epoch: 11 December)

Date Brightness Start Highest point End Pass type
(mag) Time Alt. Az. Time Alt. Az. Time Alt. Az.
11 Dec -3.7 17:09:51 10° W 17:13:09 78° SSW 17:15:48 15° ESE visible
11 Dec -1.5 18:46:31 10° W 18:48:28 23° WSW 18:48:28 23° WSW visible
12 Dec -2.6 17:54:08 10° W 17:57:14 39° SSW 17:58:40 24° SSE visible
13 Dec -3.1 17:01:49 10° W 17:05:03 55° SSW 17:08:17 10° ESE visible
13 Dec -1.1 18:39:00 10° WSW 18:41:02 15° SW 18:41:44 14° SSW visible
14 Dec -1.5 17:46:17 10° W 17:48:58 23° SW 17:51:38 10° SSE visible
15 Dec -2.1 16:53:49 10° W 16:56:50 34° SSW 16:59:51 10° SE visible
16 Dec -0.6 17:38:55 10° WSW 17:40:32 13° SW 17:42:09 10° S visible
17 Dec -0.9 16:45:57 10° W 16:48:28 20° SW 16:50:57 10° SSE visible
19 Dec -0.1 16:38:55 10° WSW 16:39:56 11° SW 16:40:56 10° SSW visible
